Location: Hilton Head Island
(32.2163°N, 80.7526°W)
Time: 06:36:09
(UTC-04:00)

Altair - Pass Details

Date: 24 February 2026
Orbit: 1502 x 1682 km, 47.2° (Epoch: 8 March)

Event Time Altitude Azimuth Distance (km) Brightness Sun altitude
Exits shadow 03:35:41 45° 20° (NNE) 1,968 8.1 -42.7°
Drops below altitude 10° 03:42:09 10° 48° (NE) 3,698 10.1 -41.4°
Sets 03:45:20 0° 53° (NE) 4,702 10.8 -40.8°
